When you browse on this site, cookies collect data to enhance your experience and personalize the content and advertising you see.
Visit our Privacy Policy to learn more. By continuing to use the site, you agree to this use of cookies and data.
  • In Hungary
  • List of Countries
  • For 7 days
  • Water Temperature
  • Weather Map
  • News
  • Weather Widgets
  • user-avatar
    Login

    Hourly Weather Carmelo

    Today, 21 November, Thursday

    Time Temperature Precipitation Wind Pressure Humidity
    00:00 +24°C° 0 mm 3 mps 758 mmHg 66%
    01:00 +24°C° 0 mm 3 mps 758 mmHg 68%
    02:00 +23°C° 0 mm 2 mps 758 mmHg 69%
    03:00 +21°C° 0.1 mm 2 mps 758 mmHg 73%
    04:00 +21°C° 0.1 mm 2 mps 758 mmHg 76%
    05:00 +21°C° 0.1 mm 2 mps 758 mmHg 80%
    06:00 +24°C° 0 mm 2 mps 758 mmHg 74%
    07:00 +26°C° 0 mm 2 mps 759 mmHg 68%
    08:00 +28°C° 0 mm 2 mps 759 mmHg 62%
    09:00 +29°C° 0 mm 2 mps 759 mmHg 61%
    10:00 +30°C° 0 mm 2 mps 758 mmHg 59%
    11:00 +31°C° 0 mm 2 mps 758 mmHg 57%
    12:00 +31°C° 0 mm 2 mps 757 mmHg 58%
    13:00 +31°C° 0 mm 2 mps 757 mmHg 58%
    14:00 +32°C° 0 mm 1 mps 756 mmHg 58%
    15:00 +32°C° 0.2 mm 2 mps 756 mmHg 59%
    16:00 +32°C° 0.2 mm 2 mps 755 mmHg 59%
    17:00 +33°C° 0.2 mm 3 mps 755 mmHg 60%
    18:00 +29°C° 0.9 mm 2 mps 755 mmHg 70%
    19:00 +27°C° 0.9 mm 2 mps 755 mmHg 80%
    20:00 +25°C° 0.9 mm 2 mps 755 mmHg 91%
    21:00 +24°C° 1.2 mm 2 mps 756 mmHg 92%
    22:00 +24°C° 1.2 mm 2 mps 756 mmHg 93%
    23:00 +24°C° 1.2 mm 2 mps 757 mmHg 93%

    Tomorrow, 22 November, Friday

    Time Temperature Precipitation Wind Pressure Humidity
    00:00 +24°C° 0.9 mm 2 mps 756 mmHg 94%
    01:00 +23°C° 0.9 mm 2 mps 756 mmHg 95%
    02:00 +23°C° 0.9 mm 2 mps 756 mmHg 96%
    03:00 +23°C° 0.8 mm 2 mps 756 mmHg 96%
    04:00 +23°C° 0.8 mm 1 mps 757 mmHg 95%
    05:00 +22°C° 0.8 mm 1 mps 757 mmHg 95%
    06:00 +24°C° 0 mm 1 mps 757 mmHg 90%
    07:00 +25°C° 0 mm 1 mps 758 mmHg 84%
    08:00 +27°C° 0 mm 2 mps 758 mmHg 78%
    09:00 +27°C° 0.3 mm 3 mps 759 mmHg 78%
    10:00 +28°C° 0.3 mm 4 mps 759 mmHg 77%
    11:00 +28°C° 0.3 mm 5 mps 759 mmHg 76%
    12:00 +28°C° 0.1 mm 6 mps 759 mmHg 74%
    13:00 +28°C° 0.1 mm 6 mps 759 mmHg 72%
    14:00 +27°C° 0.1 mm 7 mps 759 mmHg 69%
    15:00 +26°C° 0 mm 7 mps 759 mmHg 70%
    16:00 +24°C° 0 mm 8 mps 760 mmHg 71%
    17:00 +23°C° 0 mm 8 mps 760 mmHg 72%
    18:00 +22°C° 0 mm 8 mps 761 mmHg 74%
    19:00 +21°C° 0 mm 8 mps 762 mmHg 76%
    20:00 +20°C° 0 mm 8 mps 762 mmHg 78%
    21:00 +18°C° 0 mm 7 mps 762 mmHg 77%
    22:00 +18°C° 0 mm 7 mps 763 mmHg 77%
    23:00 +19°C° 0 mm 6 mps 763 mmHg 76%

    Day after tomorrow, 23 November, Saturday

    Time Temperature Precipitation Wind Pressure Humidity
    00:00 +17°C° 0 mm 6 mps 763 mmHg 78%
    01:00 +16°C° 0 mm 6 mps 762 mmHg 80%
    02:00 +16°C° 0 mm 6 mps 762 mmHg 82%
    03:00 +15°C° 0 mm 5 mps 763 mmHg 83%
    04:00 +15°C° 0 mm 5 mps 763 mmHg 83%
    05:00 +15°C° 0 mm 4 mps 764 mmHg 84%
    06:00 +16°C° 0 mm 5 mps 764 mmHg 78%
    07:00 +19°C° 0 mm 5 mps 764 mmHg 72%
    08:00 +20°C° 0 mm 5 mps 765 mmHg 65%
    09:00 +21°C° 0 mm 5 mps 764 mmHg 61%
    10:00 +23°C° 0 mm 5 mps 764 mmHg 56%
    11:00 +25°C° 0 mm 5 mps 764 mmHg 51%
    12:00 +26°C° 0 mm 5 mps 764 mmHg 51%
    13:00 +26°C° 0 mm 5 mps 763 mmHg 50%
    14:00 +27°C° 0 mm 5 mps 763 mmHg 50%
    15:00 +26°C° 0 mm 5 mps 762 mmHg 52%
    16:00 +26°C° 0 mm 5 mps 762 mmHg 55%
    17:00 +25°C° 0 mm 5 mps 762 mmHg 58%
    18:00 +23°C° 0 mm 5 mps 762 mmHg 63%
    19:00 +21°C° 0 mm 5 mps 762 mmHg 69%
    20:00 +20°C° 0 mm 5 mps 762 mmHg 74%
    21:00 +19°C° 0 mm 5 mps 762 mmHg 73%
    22:00 +17°C° 0 mm 6 mps 762 mmHg 72%
    23:00 +17°C° 0 mm 6 mps 762 mmHg 71%

    24 November, Sunday

    Time Temperature Precipitation Wind Pressure Humidity
    00:00 +16°C° 0 mm 6 mps 762 mmHg 71%
    01:00 +15°C° 0 mm 6 mps 761 mmHg 72%
    02:00 +15°C° 0 mm 6 mps 761 mmHg 73%
    03:00 +14°C° 0 mm 6 mps 761 mmHg 75%
    04:00 +14°C° 0 mm 5 mps 761 mmHg 77%
    05:00 +13°C° 0 mm 4 mps 762 mmHg 80%
    06:00 +15°C° 0 mm 5 mps 761 mmHg 74%
    07:00 +16°C° 0 mm 6 mps 761 mmHg 69%
    08:00 +18°C° 0 mm 7 mps 761 mmHg 64%
    09:00 +21°C° 0 mm 7 mps 760 mmHg 60%
    10:00 +22°C° 0 mm 7 mps 759 mmHg 55%
    11:00 +24°C° 0 mm 7 mps 759 mmHg 51%
    12:00 +26°C° 0 mm 6 mps 758 mmHg 50%
    13:00 +26°C° 0 mm 6 mps 757 mmHg 50%
    14:00 +27°C° 0 mm 6 mps 756 mmHg 49%
    15:00 +27°C° 0 mm 6 mps 756 mmHg 52%
    16:00 +26°C° 0 mm 6 mps 755 mmHg 56%
    17:00 +26°C° 0 mm 6 mps 755 mmHg 59%
    18:00 +23°C° 0 mm 6 mps 755 mmHg 64%
    19:00 +22°C° 0 mm 5 mps 755 mmHg 69%
    20:00 +21°C° 0 mm 5 mps 755 mmHg 74%
    21:00 +20°C° 0 mm 5 mps 755 mmHg 76%
    22:00 +20°C° 0 mm 6 mps 755 mmHg 78%
    23:00 +19°C° 0 mm 6 mps 754 mmHg 80%

    25 November, Monday

    Time Temperature Precipitation Wind Pressure Humidity
    00:00 +19°C° 0 mm 6 mps 754 mmHg 79%
    01:00 +17°C° 0 mm 5 mps 754 mmHg 79%
    02:00 +17°C° 0 mm 5 mps 754 mmHg 78%
    03:00 +16°C° 0.3 mm 5 mps 754 mmHg 82%
    04:00 +16°C° 0.3 mm 5 mps 755 mmHg 86%
    05:00 +15°C° 0.3 mm 5 mps 755 mmHg 90%
    06:00 +15°C° 1.6 mm 5 mps 755 mmHg 91%
    07:00 +15°C° 1.6 mm 4 mps 755 mmHg 93%
    08:00 +15°C° 1.6 mm 4 mps 755 mmHg 94%
    09:00 +15°C° 1.7 mm 4 mps 755 mmHg 95%
    10:00 +15°C° 1.7 mm 5 mps 755 mmHg 95%
    11:00 +16°C° 1.7 mm 6 mps 755 mmHg 95%
    12:00 +17°C° 0.3 mm 5 mps 754 mmHg 93%
    13:00 +18°C° 0.3 mm 3 mps 754 mmHg 91%
    14:00 +19°C° 0.3 mm 2 mps 754 mmHg 89%
    15:00 +20°C° 0 mm 2 mps 754 mmHg 86%
    16:00 +20°C° 0 mm 2 mps 754 mmHg 83%
    17:00 +21°C° 0 mm 3 mps 754 mmHg 79%
    18:00 +20°C° 0 mm 2 mps 754 mmHg 83%
    19:00 +19°C° 0 mm 2 mps 754 mmHg 87%
    20:00 +18°C° 0 mm 2 mps 755 mmHg 91%
    21:00 +18°C° 0 mm 2 mps 755 mmHg 90%
    22:00 +18°C° 0 mm 3 mps 755 mmHg 90%
    23:00 +18°C° 0 mm 3 mps 755 mmHg 90%

    26 November, Tuesday

    Time Temperature Precipitation Wind Pressure Humidity
    00:00 +18°C° 0 mm 3 mps 755 mmHg 90%
    01:00 +18°C° 0 mm 3 mps 755 mmHg 90%
    02:00 +18°C° 0 mm 3 mps 755 mmHg 90%
    03:00 +18°C° 0 mm 4 mps 755 mmHg 85%
    04:00 +17°C° 0 mm 5 mps 756 mmHg 80%
    05:00 +17°C° 0 mm 6 mps 756 mmHg 75%
    06:00 +19°C° 0 mm 6 mps 757 mmHg 62%
    07:00 +20°C° 0 mm 6 mps 757 mmHg 50%
    08:00 +21°C° 0 mm 7 mps 757 mmHg 37%
    09:00 +22°C° 0 mm 6 mps 757 mmHg 34%
    10:00 +23°C° 0 mm 6 mps 757 mmHg 30%
    11:00 +25°C° 0 mm 5 mps 757 mmHg 26%
    12:00 +25°C° 0 mm 5 mps 757 mmHg 26%
    13:00 +26°C° 0 mm 5 mps 757 mmHg 27%
    14:00 +26°C° 0 mm 5 mps 756 mmHg 27%
    15:00 +26°C° 0 mm 5 mps 757 mmHg 31%
    16:00 +25°C° 0 mm 4 mps 757 mmHg 35%
    17:00 +25°C° 0 mm 3 mps 757 mmHg 39%
    18:00 +22°C° 0 mm 3 mps 757 mmHg 42%
    19:00 +20°C° 0 mm 3 mps 758 mmHg 46%
    20:00 +18°C° 0 mm 3 mps 758 mmHg 49%
    21:00 +17°C° 0 mm 3 mps 758 mmHg 57%
    22:00 +15°C° 0 mm 4 mps 759 mmHg 64%
    23:00 +14°C° 0 mm 4 mps 759 mmHg 72%
    Show more